FW0183 Weather Reports


time (UTC)temp
F
wind
direction
speed
knots
gust
knots
rain 1hr
in
rain 24hr
in
rain mn
in
humidity
%
barometer
mb
20260508141505 50 44 0.9 5.2 0.00 0.01 0.00 52 1020.4
20260508140044 48 47 2.6 5.2 0.00 0.01 0.00 53 1020.4
20260508134635 47 24 1.7 4.3 0.00 0.01 0.00 59 1020.4
20260508133028 44 5 0.9 2.6 0.00 0.01 0.00 64 1020.3
20260508131518 42 5 0.9 3.5 0.00 0.01 0.00 72 1020.1
20260508130004 40 5 1.7 2.6 0.00 0.01 0.00 87 1020.1
20260508124657 37 5 0.0 0.9 0.00 0.01 0.00 92 1020.2
20260508123043 34 9 0.0 2.6 0.00 0.01 0.00 94 1020.1
20260508121634 33 10 0.0 0.9 0.00 0.01 0.00 94 1020.2
20260508120012 31 10 0.0 2.6 0.00 0.01 0.00 95 1020.1
20260508114608 29 9 0.0 0.9 0.00 0.01 0.00 94 1020.1
20260508113108 27 5 0.0 1.7 0.00 0.01 0.00 94 1019.9
20260508111551 26 5 0.0 0.0 0.00 0.01 0.00 93 1019.7
20260508110044 25 360 0.0 1.7 0.00 0.01 0.00 93 1019.6
20260508104601 25 5 0.0 3.5 0.00 0.01 0.00 91 1019.3
20260508103034 25 5 0.0 1.7 0.00 0.01 0.00 91 1019.3
20260508101519 27 5 0.0 0.0 0.00 0.01 0.00 92 1019.1
20260508100054 26 5 0.0 0.0 0.00 0.01 0.00 92 1019.0
20260508094548 27 5 0.0 0.0 0.00 0.01 0.00 90 1018.8
20260508093028 27 5 0.0 0.0 0.00 0.01 0.00 92 1018.7
20260508091522 27 5 0.0 3.5 0.00 0.01 0.00 92 1018.6
20260508090017 27 10 1.7 4.3 0.00 0.01 0.00 89 1018.4
20260508084503 29 11 0.0 0.0 0.00 0.01 0.00 89 1018.2
20260508083110 29 16 0.0 0.0 0.00 0.01 0.00 89 1018.2
20260508081557 29 11 0.0 0.0 0.00 0.01 0.00 88 1018.2
20260508080042 30 360 0.0 1.7 0.00 0.01 0.00 87 1017.9
20260508074533 30 360 0.0 1.7 0.00 0.01 0.01 88 1017.8
20260508073010 31 360 0.9 4.3 0.00 0.01 0.01 88 1017.7
20260508071501 31 360 0.0 1.7 0.00 0.01 0.01 87 1017.6
20260508070139 32 360 0.0 0.0 0.00 0.01 0.01 87 1017.3
20260508064556 32 360 0.0 0.0 0.00 0.01 0.01 86 1017.5
20260508063040 33 360 0.0 0.0 0.00 0.01 0.01 86 1017.3
20260508061631 33 360 0.0 0.9 0.00 0.01 0.01 84 1017.4
20260508060024 34 360 0.0 1.7 0.00 0.01 0.01 84 1017.6
20260508054520 34 360 0.0 5.2 0.00 0.02 0.01 83 1017.6
20260508053106 35 360 0.9 3.5 0.00 0.02 0.01 82 1017.6
20260508051551 36 360 1.7 3.5 0.00 0.02 0.01 79 1017.4
20260508050038 39 360 1.7 3.5 0.00 0.02 0.01 72 1017.1
20260508044528 41 13 0.0 3.5 0.00 0.02 0.01 69 1016.9
20260508043041 42 16 0.0 5.2 0.00 0.02 0.01 69 1016.5
20260508041514 42 17 1.7 4.3 0.00 0.02 0.01 70 1016.5
20260508040017 43 348 0.9 5.2 0.00 0.02 0.01 69 1016.5
20260508034600 43 32 0.9 3.5 0.00 0.02 0.01 70 1016.5
20260508033039 43 32 0.9 7.8 0.00 0.02 0.01 68 1016.3
20260508031532 44 30 0.9 4.3 0.00 0.02 0.01 69 1016.2
20260508030038 44 9 0.9 5.2 0.00 0.02 0.01 69 1016.1
20260508024527 44 288 2.6 7.8 0.00 0.03 0.01 70 1016.0
20260508023018 44 26 0.9 4.3 0.00 0.03 0.01 72 1015.7
20260508021506 44 26 1.7 5.2 0.00 0.03 0.01 72 1015.5
20260508013045 45 26 1.7 7.8 0.00 0.06 0.01 73 1014.7
20260508011520 45 298 0.9 7.0 0.00 0.06 0.01 76 1014.4
20260508010022 44 336 0.0 0.9 0.00 0.06 0.01 79 1014.4
20260508004550 45 336 0.0 0.0 0.00 0.18 0.01 75 1014.2
20260508003042 46 336 0.0 7.0 0.00 0.18 0.01 73 1014.1
20260508001521 47 304 1.7 7.0 0.00 0.18 0.01 72 1014.0
20260507234559 48 292 3.5 11.3 0.00 0.18 0.01 68 1013.9
20260507233050 48 317 1.7 5.2 0.00 0.18 0.01 68 1013.8
20260507231543 49 327 2.6 8.7 0.00 0.18 0.01 68 1013.6
20260507230037 49 336 2.6 9.6 0.00 0.18 0.01 66 1013.6
20260507224531 51 9 6.1 13.0 0.00 0.18 0.01 66 1013.5
20260507223024 51 336 3.5 9.6 0.00 0.18 0.01 68 1013.3
20260507221523 51 24 2.6 11.3 0.00 0.18 0.01 68 1013.1
20260507220016 50 331 1.7 9.6 0.00 0.18 0.01 68 1013.0
20260507214558 49 317 4.3 11.3 0.00 0.18 0.01 72 1012.9
20260507213059 49 314 6.1 10.4 0.00 0.18 0.01 73 1012.7
20260507211545 51 284 6.1 16.5 0.00 0.18 0.01 69 1012.6
20260507210036 51 279 8.7 13.0 0.00 0.18 0.01 69 1012.4
20260507204527 51 271 4.3 9.6 0.00 0.18 0.01 73 1012.3
20260507203019 48 246 2.6 13.0 0.00 0.18 0.01 79 1012.5
20260507201514 47 13 3.5 10.4 0.00 0.18 0.01 80 1012.8
20260507200006 46 360 8.7 16.5 0.00 0.18 0.01 81 1012.6
20260507194650 46 278 2.6 7.0 0.00 0.18 0.01 81 1012.6
20260507193041 46 51 0.9 7.8 0.00 0.18 0.01 82 1012.7
20260507191535 45 15 1.7 5.2 0.00 0.18 0.01 84 1012.8
20260507190030 45 30 2.6 7.8 0.00 0.18 0.01 83 1013.1
20260507184523 45 43 0.9 7.0 0.00 0.18 0.01 84 1012.9
20260507183035 45 265 1.7 10.4 0.00 0.18 0.01 84 1012.9
20260507181523 45 304 3.5 7.8 0.00 0.18 0.01 84 1012.9
20260507180020 45 350 1.7 7.0 0.00 0.18 0.01 83 1013.0
20260507174600 46 49 2.6 8.7 0.00 0.18 0.01 83 1012.7
20260507173156 46 303 0.9 7.8 0.00 0.18 0.01 85 1012.8
20260507171649 45 254 0.9 4.3 0.00 0.18 0.01 84 1012.7
20260507170041 45 309 0.9 5.2 0.00 0.18 0.01 86 1013.0
20260507164536 45 53 0.9 5.2 0.00 0.21 0.01 87 1012.6
20260507163028 46 41 1.7 7.0 0.00 0.21 0.01 87 1012.7
20260507161523 45 29 1.7 5.2 0.00 0.21 0.01 87 1012.8
20260507160028 44 26 0.9 5.2 0.00 0.21 0.01 88 1012.9
20260507154513 44 350 0.9 7.8 0.01 0.25 0.01 91 1012.7
20260507153007 44 50 4.3 8.7 0.01 0.25 0.01 91 1012.7
20260507151604 43 47 0.9 5.2 0.01 0.25 0.01 93 1012.8
20260507150053 43 46 0.9 2.6 0.01 0.25 0.01 92 1013.0
20260507144533 43 47 1.7 5.2 0.00 0.30 0.00 92 1012.9
20260507143038 43 44 2.6 9.6 0.00 0.30 0.00 92 1012.9